小惑星ファエトン

(3200) Phaethon (2003)

English version
Home page
Updated on February 20, 2004

---------------------------------------------------------------------

・ プロフィール

・ 軌道要素

   The following improved orbital elements by Kenji Muraoka, are 
  from 116 observations 1983 to 1996, perturbations by 9 Plantes,
  Moon and 5 minor planets were taken into account. 
   The mean residual is +/- 0.91 arc seconds.

          T  =  2003 Sep. 25.94893  TT    Epoch  =  2003 Oct.  8.0  TT
       Peri. =  321.96648                     e  =    0.8899529
       Node  =  265.44023    (2000.0)         a  =    1.2713718 AU
       Incl. =   22.16447                     n  =    0.687535610
          q  =    0.1399108 AU                P  =    1.434 years

・ 星図

・ 光度変化

        H = 14.3  G = 0.15

---------------------------------------------------------------------

軌道要素は村岡健治氏の計算によるものです。
星図は StellaNavigator Ver.2.0 for Windows (アストロアーツ 編著 / アスキー出版局刊) で作成したものです。
光度グラフはComet for Windowsで作成したものです。

---------------------------------------------------------------------

Copyright(C) Seiichi Yoshida (comet@aerith.net). All rights reserved.